Total_Precipitation_Accumulation
0.13 0.07 0.08 0.07 0.10 0.11 0.12 0.15 0.17 0.18 0.17 0.16 0.15 0.15 0.17 0.16 0.14 0.12 0.11 0.13 0.17 0.23 0.27 0.30 0.28 0.26 0.27 0.27 0.23 0.19 0.18 0.19 0.24 0.25 0.29 0.35 0.41 0.43 0.44 0.44 0.54 0.53 0.43
0.09 0.07 0.08 0.06 0.08 0.09 0.10 0.14 0.16 0.17 0.18 0.19 0.20 0.21 0.21 0.17 0.13 0.12 0.11 0.15 0.22 0.26 0.26 0.27 0.25 0.22 0.24 0.21 0.17 0.16 0.16 0.21 0.31 0.38 0.43 0.46 0.52 0.51 0.49 0.46 0.58 0.74 0.54
0.10 0.07 0.07 0.07 0.07 0.08 0.10 0.14 0.15 0.14 0.16 0.18 0.20 0.20 0.18 0.15 0.14 0.14 0.13 0.17 0.22 0.23 0.22 0.18 0.17 0.17 0.17 0.16 0.15 0.15 0.17 0.25 0.40 0.59 0.93 0.86 0.70 0.59 0.55 0.50 0.43 0.42 0.41
0.10 0.08 0.06 0.07 0.08 0.08 0.09 0.12 0.17 0.17 0.16 0.16 0.18 0.18 0.17 0.16 0.17 0.18 0.18 0.20 0.22 0.22 0.19 0.16 0.15 0.15 0.16 0.16 0.15 0.15 0.20 0.31 0.53 0.85 1.48 1.32 1.03 0.93 0.78 0.63 0.44 0.35 0.35
0.09 0.08 0.09 0.09 0.11 0.12 0.11 0.10 0.16 0.18 0.19 0.20 0.21 0.19 0.21 0.22 0.22 0.21 0.22 0.24 0.24 0.25 0.27 0.26 0.23 0.20 0.18 0.18 0.18 0.21 0.29 0.44 0.72 1.15 1.76 1.70 1.55 1.31 0.88 0.65 0.55 0.45 0.41
0.15 0.11 0.11 0.12 0.13 0.16 0.15 0.15 0.17 0.19 0.23 0.25 0.25 0.25 0.25 0.26 0.26 0.25 0.26 0.28 0.29 0.30 0.32 0.35 0.32 0.25 0.21 0.21 0.23 0.28 0.38 0.59 0.81 1.24 1.84 1.82 1.67 1.40 0.91 0.73 0.62 0.53 0.47
0.26 0.23 0.17 0.16 0.15 0.17 0.19 0.24 0.27 0.24 0.26 0.29 0.30 0.28 0.28 0.29 0.29 0.30 0.31 0.33 0.37 0.37 0.37 0.33 0.30 0.25 0.23 0.23 0.27 0.32 0.46 0.73 0.98 1.55 1.88 1.80 1.88 1.46 1.04 0.93 0.81 0.67 0.53
0.39 0.33 0.32 0.25 0.19 0.20 0.25 0.28 0.34 0.39 0.38 0.37 0.36 0.35 0.35 0.34 0.33 0.36 0.37 0.40 0.44 0.49 0.48 0.37 0.30 0.28 0.27 0.25 0.27 0.33 0.49 0.66 0.85 1.46 1.85 1.72 1.58 1.34 1.19 1.09 0.93 0.76 0.64
0.54 0.55 0.52 0.38 0.32 0.34 0.36 0.37 0.42 0.46 0.46 0.45 0.46 0.46 0.44 0.44 0.42 0.42 0.43 0.45 0.49 0.51 0.50 0.44 0.41 0.37 0.35 0.32 0.31 0.34 0.44 0.68 0.91 1.20 1.36 1.67 1.57 1.55 1.36 1.12 0.90 0.76 0.68
0.74 0.76 0.76 0.75 0.69 0.58 0.56 0.62 0.59 0.60 0.56 0.48 0.45 0.48 0.48 0.45 0.43 0.45 0.43 0.49 0.53 0.56 0.53 0.54 0.56 0.51 0.47 0.41 0.39 0.41 0.49 0.57 0.61 1.02 1.59 1.60 1.51 1.65 1.60 1.28 1.02 0.86 0.75
0.96 0.95 0.88 0.95 0.96 0.84 0.78 0.73 0.78 0.76 0.71 0.63 0.55 0.55 0.54 0.63 0.70 0.68 0.59 0.66 0.68 0.71 0.71 0.72 0.71 0.65 0.62 0.54 0.53 0.58 0.56 0.52 0.75 1.26 1.76 1.52 1.54 1.75 1.79 1.57 1.24 1.04 0.92
1.17 1.15 1.11 1.00 0.94 0.90 0.83 0.89 0.97 0.90 0.88 0.80 0.87 0.85 0.87 1.16 1.31 1.12 1.17 1.16 1.09 1.04 0.97 0.90 0.86 0.83 0.75 0.60 0.65 0.67 0.56 0.63 0.95 1.46 1.49 1.40 1.55 1.81 2.00 1.80 1.47 1.24 1.15
1.55 1.36 1.44 1.32 1.16 1.31 1.44 1.30 1.26 1.24 1.27 1.20 1.33 1.36 1.41 1.57 1.57 1.52 1.66 1.51 1.44 1.38 1.34 1.38 1.14 0.91 0.87 0.87 0.82 0.78 0.72 0.74 0.92 1.18 1.35 1.41 1.65 1.94 2.13 1.96 1.71 1.55 1.52
2.03 1.84 1.72 1.74 1.65 1.74 2.02 1.87 1.66 1.54 1.57 1.60 1.71 1.65 1.92 2.01 1.95 1.90 1.99 1.90 1.90 1.88 1.91 1.78 1.62 1.39 1.26 1.13 1.02 1.01 0.99 0.94 1.02 1.25 1.41 1.44 1.59 1.95 2.22 2.17 1.98 1.78 1.72
2.29 2.20 1.98 2.02 2.08 2.21 2.42 2.29 2.10 2.14 1.93 1.86 2.03 2.02 2.16 2.21 2.17 2.24 2.14 2.12 2.02 2.01 1.99 1.87 1.78 1.78 1.69 1.50 1.25 1.21 1.25 1.18 1.23 1.40 1.47 1.49 1.52 1.80 2.21 2.44 2.35 2.11 2.07
2.28 2.36 2.41 2.37 2.44 2.35 2.44 2.43 2.21 2.11 2.21 2.05 2.02 2.07 2.08 2.19 2.39 2.45 2.42 2.37 2.31 2.27 2.34 2.16 1.95 2.09 1.94 1.86 1.65 1.56 1.49 1.54 1.53 1.63 1.83 1.82 1.59 1.58 1.90 2.29 2.47 2.46 2.47
2.23 2.27 2.41 2.45 2.57 2.54 2.51 2.52 2.40 2.26 2.24 2.30 2.36 2.43 2.28 2.25 2.51 2.58 2.74 2.67 2.61 2.55 2.57 2.50 2.37 2.41 2.19 2.07 1.94 1.82 1.77 1.88 1.89 1.83 1.99 2.14 1.90 1.78 1.76 1.92 2.15 2.35 2.51
1.90 2.06 2.22 2.34 2.47 2.72 2.83 2.93 2.78 2.86 2.84 2.77 2.63 2.61 2.47 2.45 2.66 2.91 3.01 2.98 2.98 2.84 2.89 2.97 2.91 2.71 2.57 2.40 2.23 1.98 1.91 2.04 2.06 2.04 2.06 2.20 2.35 2.18 2.04 1.89 1.94 2.09 2.34
1.67 2.02 2.25 2.45 2.68 2.88 3.14 3.35 3.29 3.39 3.29 3.20 3.12 3.02 3.06 3.15 3.13 3.29 3.40 3.45 3.40 3.38 3.34 3.17 3.34 3.17 3.07 2.88 2.48 2.25 2.02 1.97 2.05 1.98 2.05 2.06 2.21 2.25 2.26 2.14 1.99 2.01 2.21
1.73 2.07 2.38 2.64 3.02 3.39 3.51 3.67 3.59 3.71 3.77 3.81 3.94 3.82 3.66 3.73 3.77 3.89 3.87 3.89 3.88 3.90 3.74 3.68 3.70 3.46 3.24 3.17 2.69 2.47 2.28 2.07 2.07 2.04 2.02 2.07 2.04 1.94 2.02 2.14 2.22 2.01 2.12
2.26 2.35 2.53 2.81 3.12 3.31 3.62 3.93 4.10 4.17 4.36 4.47 4.52 4.59 4.58 4.58 4.69 4.75 4.63 4.55 4.39 4.25 4.06 3.95 3.76 3.55 3.30 3.22 3.06 2.67 2.18 1.87 1.84 1.76 1.79 1.94 1.95 1.89 1.93 2.02 2.10 2.05 1.93
2.59 2.61 2.82 3.09 3.34 3.53 3.90 4.37 4.77 4.93 5.02 5.05 5.06 5.25 5.37 5.39 5.55 5.61 5.55 5.35 5.12 4.84 4.36 3.99 3.77 3.58 3.27 3.32 3.26 3.15 2.54 2.10 1.74 1.41 1.49 1.56 1.63 1.77 1.76 1.76 1.88 2.01 1.93
2.54 2.65 2.85 3.25 3.64 4.06 4.54 5.03 5.43 5.70 5.73 5.65 5.38 5.53 5.69 5.63 5.70 5.86 5.82 5.59 5.23 4.66 4.14 3.96 3.86 3.73 3.52 3.43 3.28 3.35 2.89 2.43 2.04 1.59 1.36 1.28 1.37 1.42 1.43 1.51 1.60 1.75 1.74
2.45 2.70 2.90 3.26 3.87 4.33 4.72 5.37 5.90 6.19 6.40 6.51 6.32 6.03 5.83 5.62 5.51 5.40 5.22 4.81 4.40 4.06 3.78 3.67 3.68 3.53 3.50 3.36 3.27 2.98 2.75 2.48 2.23 1.86 1.49 1.30 1.30 1.30 1.30 1.29 1.37 1.60 1.70
2.32 2.46 2.68 3.17 3.77 4.46 5.10 5.65 6.15 6.58 6.80 6.76 6.36 5.96 5.46 5.08 4.67 4.33 3.97 3.70 3.60 3.43 3.22 3.12 3.09 3.00 2.87 2.79 2.80 2.75 2.69 2.45 2.14 1.93 1.68 1.48 1.46 1.36 1.35 1.39 1.45 1.53 1.64
1.98 2.20 2.45 2.84 3.55 4.30 4.93 5.53 5.97 6.34 6.41 6.10 5.58 5.08 4.75 4.35 3.89 3.44 3.20 2.97 2.85 2.68 2.46 2.33 2.31 2.36 2.45 2.49 2.53 2.50 2.46 2.43 2.28 2.19 2.02 1.80 1.66 1.60 1.52 1.47 1.53 1.60 1.75